DQA226 VREI-VRMD

Flight info

Callsign DQA226
Flight time 0h 13m
Altitude 4000
Route UGITA/N0279F060
Aircraft DH8D/M-SDE2E3FGRY/H

Departure

Time 2026-04-23 13:53
Airport Ifuru Airport (VREI)

Arrival

Time 2026-04-23 14:06
Airport Dharavandhoo Airport (VRMD)
Time Latitude Longitude Altitude Speed Heading
2026-04-23 13:40 5.70769 73.02434 31 ft 0 kts 241°
2026-04-23 13:50 5.70767 73.02432 31 ft 2 kts 225°
2026-04-23 13:51 5.70746 73.02454 30 ft 11 kts 76°
2026-04-23 13:51 5.70794 73.02507 28 ft 12 kts 352°
2026-04-23 13:51 5.70936 73.02492 29 ft 28 kts 353°
2026-04-23 13:51 5.71172 73.02464 26 ft 39 kts 352°
2026-04-23 13:52 5.71336 73.02426 22 ft 12 kts 360°
2026-04-23 13:52 5.71342 73.02443 22 ft 0 kts 179°
2026-04-23 13:52 5.71283 73.02451 23 ft 33 kts 172°
2026-04-23 13:52 5.70725 73.02516 29 ft 120 kts 173°
2026-04-23 13:53 5.69660 73.02628 232 ft 170 kts 175°
2026-04-23 13:53 5.68430 73.02726 682 ft 182 kts 176°
2026-04-23 13:53 5.67154 73.02819 1308 ft 188 kts 175°
2026-04-23 13:53 5.65843 73.02921 1969 ft 191 kts 175°
2026-04-23 13:54 5.64515 73.03022 2585 ft 195 kts 175°
2026-04-23 13:54 5.63067 73.03127 2807 ft 220 kts 175°
2026-04-23 13:54 5.61510 73.03431 3086 ft 234 kts 159°
2026-04-23 13:54 5.59962 73.04082 3384 ft 248 kts 155°
2026-04-23 13:55 5.58382 73.04787 3812 ft 250 kts 155°
2026-04-23 13:55 5.56796 73.05505 3960 ft 249 kts 154°
2026-04-23 13:55 5.55206 73.06227 4011 ft 250 kts 154°
2026-04-23 13:55 5.53606 73.06955 4027 ft 251 kts 154°
2026-04-23 13:56 5.51994 73.07689 4033 ft 254 kts 154°
2026-04-23 13:56 5.50373 73.08427 4034 ft 256 kts 154°
2026-04-23 13:56 5.48727 73.09177 4035 ft 257 kts 154°
2026-04-23 13:56 5.47087 73.09923 4036 ft 259 kts 154°
2026-04-23 13:57 5.45411 73.10686 4036 ft 260 kts 154°
2026-04-23 13:57 5.43763 73.11437 4035 ft 261 kts 154°
2026-04-23 13:57 5.42103 73.12193 4036 ft 262 kts 154°
2026-04-23 13:57 5.40419 73.12961 4036 ft 262 kts 154°
2026-04-23 13:58 5.38779 73.13785 4031 ft 262 kts 147°
2026-04-23 13:58 5.37291 73.14856 4034 ft 262 kts 141°
2026-04-23 13:58 5.35826 73.15974 4032 ft 262 kts 141°
2026-04-23 13:58 5.34368 73.17087 4030 ft 262 kts 141°
2026-04-23 13:59 5.32909 73.18199 4027 ft 263 kts 141°
2026-04-23 13:59 5.31441 73.19315 4024 ft 263 kts 141°
2026-04-23 13:59 5.29975 73.20428 4021 ft 262 kts 141°
2026-04-23 13:59 5.28536 73.21521 4014 ft 258 kts 141°
2026-04-23 14:00 5.27574 73.22251 4011 ft 254 kts 141°
2026-04-23 14:00 5.25717 73.23659 4010 ft 247 kts 141°
2026-04-23 14:00 5.24360 73.24688 4009 ft 241 kts 142°
2026-04-23 14:00 5.23017 73.25704 4008 ft 237 kts 141°
2026-04-23 14:01 5.21700 73.26701 4009 ft 233 kts 141°
2026-04-23 14:01 5.20426 73.27664 4009 ft 229 kts 141°
2026-04-23 14:01 5.19140 73.28636 3942 ft 229 kts 141°
2026-04-23 14:01 5.17808 73.29556 3759 ft 234 kts 153°
2026-04-23 14:02 5.16235 73.29730 3604 ft 227 kts 193°
2026-04-23 14:02 5.14752 73.29163 3458 ft 228 kts 203°
2026-04-23 14:02 5.13282 73.28509 3287 ft 229 kts 204°
2026-04-23 14:02 5.11833 73.27854 3081 ft 224 kts 206°
2026-04-23 14:03 5.10664 73.26875 2659 ft 216 kts 243°
2026-04-23 14:03 5.10477 73.25482 2441 ft 196 kts 284°
2026-04-23 14:03 5.10879 73.24242 2226 ft 176 kts 291°
2026-04-23 14:03 5.11287 73.23161 2049 ft 160 kts 292°
2026-04-23 14:04 5.11687 73.22156 1894 ft 152 kts 294°
2026-04-23 14:04 5.12083 73.21157 1674 ft 153 kts 292°
2026-04-23 14:04 5.12446 73.20140 1492 ft 155 kts 290°
2026-04-23 14:04 5.12830 73.19135 1324 ft 154 kts 296°
2026-04-23 14:05 5.13282 73.18152 1148 ft 154 kts 297°
2026-04-23 14:05 5.13746 73.17162 959 ft 156 kts 296°
2026-04-23 14:05 5.14188 73.16152 725 ft 158 kts 295°
2026-04-23 14:05 5.14641 73.15153 471 ft 160 kts 295°
2026-04-23 14:06 5.15104 73.14119 193 ft 157 kts 295°
2026-04-23 14:06 5.15536 73.13178 29 ft 135 kts 295°
2026-04-23 14:06 5.15805 73.12578 25 ft 32 kts 294°
2026-04-23 14:06 5.15826 73.12560 25 ft 6 kts 139°
2026-04-23 14:07 5.15777 73.12640 26 ft 21 kts 113°
2026-04-23 14:07 5.15571 73.13095 25 ft 44 kts 114°
2026-04-23 14:07 5.15463 73.13336 20 ft 21 kts 114°
2026-04-23 14:08 5.15467 73.13387 20 ft 6 kts 27°
2026-04-23 14:08 5.15498 73.13405 20 ft 4 kts 51°
2026-04-23 14:08 5.15485 73.13462 19 ft 10 kts 118°
2026-04-23 14:08 5.15479 73.13493 18 ft 0 kts 21°